| time (UTC) | temp C | wind direction | speed KPH | gust KPH | rain 1hr cm | rain 24hr cm | rain mn cm | humidity % | barometer mb |
| 20260905010009 | 20 | 49 | 8.0 | 17.7 | 0.00 | 0.00 | 0.00 | 82 | 1012.8 |
| 20260905004513 | 20 | 320 | 8.0 | 20.9 | 0.00 | 0.00 | 0.00 | 80 | 1012.6 |
| 20260905003020 | 21 | 5 | 9.7 | 20.9 | 0.00 | 0.00 | 0.00 | 78 | 1012.6 |
| 20260905001513 | 22 | 24 | 9.7 | 19.3 | 0.00 | 0.00 | 0.00 | 76 | 1012.4 |
| 20260905000007 | 22 | 16 | 11.3 | 19.3 | 0.00 | 0.00 | 0.00 | 74 | 1012.2 |
| 20260904234627 | 23 | 31 | 8.0 | 20.9 | 0.00 | 0.00 | 0.00 | 72 | 1012.2 |
| 20260904233011 | 24 | 46 | 9.7 | 19.3 | 0.00 | 0.00 | 0.00 | 70 | 1012.1 |
| 20260904231503 | 25 | 9 | 14.5 | 20.9 | 0.00 | 0.00 | 0.00 | 69 | 1011.9 |
| 20260904230030 | 25 | 39 | 11.3 | 19.3 | 0.00 | 0.00 | 0.00 | 68 | 1011.8 |
| 20260904224509 | 26 | 11 | 6.4 | 19.3 | 0.00 | 0.05 | 0.00 | 66 | 1011.7 |
| 20260904223127 | 26 | 30 | 6.4 | 20.9 | 0.00 | 0.05 | 0.00 | 66 | 1011.5 |
| 20260904221507 | 26 | 355 | 6.4 | 17.7 | 0.00 | 0.05 | 0.00 | 65 | 1011.3 |
| 20260904220014 | 27 | 44 | 8.0 | 16.1 | 0.00 | 0.05 | 0.00 | 64 | 1011.1 |
| 20260904214631 | 27 | 60 | 8.0 | 19.3 | 0.00 | 0.05 | 0.00 | 65 | 1011.0 |
| 20260904213009 | 27 | 49 | 6.4 | 19.3 | 0.00 | 0.05 | 0.00 | 63 | 1011.1 |
| 20260904211510 | 27 | 12 | 4.8 | 16.1 | 0.00 | 0.05 | 0.00 | 64 | 1011.1 |
| 20260904210005 | 27 | 13 | 8.0 | 19.3 | 0.00 | 0.05 | 0.00 | 64 | 1011.1 |
| 20260904204511 | 27 | 40 | 8.0 | 16.1 | 0.00 | 0.05 | 0.00 | 64 | 1011.0 |
| 20260904203014 | 26 | 26 | 8.0 | 19.3 | 0.00 | 0.05 | 0.00 | 65 | 1011.1 |
| 20260904201506 | 26 | 325 | 6.4 | 19.3 | 0.00 | 0.05 | 0.00 | 65 | 1011.0 |
| 20260904200126 | 26 | 281 | 8.0 | 17.7 | 0.00 | 0.05 | 0.00 | 66 | 1011.0 |
| 20260904194500 | 26 | 26 | 3.2 | 19.3 | 0.00 | 0.05 | 0.00 | 66 | 1011.0 |
| 20260904193006 | 26 | 125 | 3.2 | 14.5 | 0.00 | 0.05 | 0.00 | 66 | 1010.8 |
| 20260904191627 | 26 | 25 | 3.2 | 14.5 | 0.00 | 0.05 | 0.00 | 69 | 1010.9 |
| 20260904190012 | 25 | 34 | 6.4 | 16.1 | 0.00 | 0.05 | 0.00 | 70 | 1011.0 |
| 20260904184509 | 25 | 30 | 4.8 | 16.1 | 0.00 | 0.05 | 0.00 | 71 | 1011.0 |
| 20260904183014 | 25 | 25 | 6.4 | 17.7 | 0.00 | 0.05 | 0.00 | 71 | 1011.0 |
| 20260904181520 | 24 | 19 | 3.2 | 9.7 | 0.00 | 0.05 | 0.00 | 75 | 1011.0 |
| 20260904180021 | 23 | 29 | 6.4 | 14.5 | 0.00 | 0.05 | 0.00 | 75 | 1011.1 |
| 20260904174511 | 22 | 76 | 4.8 | 11.3 | 0.00 | 0.05 | 0.00 | 78 | 1011.2 |
| 20260904173016 | 21 | 330 | 6.4 | 16.1 | 0.00 | 0.05 | 0.00 | 80 | 1011.4 |
| 20260904171513 | 20 | 332 | 8.0 | 16.1 | 0.00 | 0.05 | 0.00 | 83 | 1011.5 |
| 20260904170018 | 20 | 11 | 8.0 | 16.1 | 0.00 | 0.05 | 0.00 | 84 | 1011.5 |
| 20260904164624 | 20 | 46 | 3.2 | 16.1 | 0.00 | 0.05 | 0.00 | 85 | 1011.4 |
| 20260904163128 | 20 | 355 | 6.4 | 16.1 | 0.00 | 0.05 | 0.00 | 85 | 1011.1 |
| 20260904161518 | 20 | 327 | 8.0 | 19.3 | 0.00 | 0.05 | 0.00 | 85 | 1011.0 |
| 20260904160127 | 20 | 20 | 9.7 | 17.7 | 0.00 | 0.05 | 0.00 | 85 | 1010.9 |
| 20260904154510 | 20 | 39 | 8.0 | 14.5 | 0.00 | 0.05 | 0.00 | 85 | 1010.6 |
| 20260904153132 | 20 | 55 | 8.0 | 16.1 | 0.00 | 0.05 | 0.00 | 85 | 1010.5 |
| 20260904151513 | 20 | 16 | 6.4 | 16.1 | 0.00 | 0.05 | 0.00 | 86 | 1010.2 |
| 20260904150016 | 20 | 51 | 9.7 | 19.3 | 0.00 | 0.05 | 0.00 | 86 | 1010.0 |
| 20260904144512 | 20 | 333 | 4.8 | 14.5 | 0.00 | 0.05 | 0.00 | 87 | 1009.9 |
| 20260904143010 | 20 | 5 | 6.4 | 19.3 | 0.00 | 0.05 | 0.00 | 89 | 1010.0 |
| 20260904141508 | 21 | 32 | 6.4 | 16.1 | 0.00 | 0.05 | 0.00 | 90 | 1009.7 |
| 20260904140010 | 21 | 60 | 3.2 | 6.4 | 0.00 | 0.05 | 0.00 | 90 | 1009.2 |
| 20260904134624 | 21 | 26 | 3.2 | 6.4 | 0.00 | 0.05 | 0.00 | 89 | 1009.0 |
| 20260904133126 | 20 | 82 | 3.2 | 6.4 | 0.00 | 0.05 | 0.00 | 89 | 1008.8 |
| 20260904131508 | 20 | 90 | 3.2 | 6.4 | 0.00 | 0.05 | 0.00 | 89 | 1008.8 |
| 20260904130004 | 20 | 105 | 3.2 | 9.7 | 0.00 | 0.05 | 0.00 | 90 | 1008.7 |
| 20260904124623 | 20 | 64 | 3.2 | 6.4 | 0.00 | 0.05 | 0.00 | 90 | 1008.8 |
| 20260904123002 | 20 | 67 | 0.0 | 6.4 | 0.00 | 0.05 | 0.00 | 90 | 1008.8 |
| 20260904121514 | 19 | 67 | 3.2 | 6.4 | 0.00 | 0.05 | 0.00 | 89 | 1008.7 |
| 20260904120011 | 19 | 88 | 3.2 | 8.0 | 0.00 | 0.05 | 0.00 | 88 | 1008.5 |
| 20260904114510 | 19 | 65 | 1.6 | 4.8 | 0.00 | 0.05 | 0.00 | 88 | 1008.7 |
| 20260904113126 | 19 | 65 | 0.0 | 8.0 | 0.00 | 0.05 | 0.00 | 88 | 1008.4 |
| 20260904111513 | 19 | 80 | 3.2 | 6.4 | 0.00 | 0.05 | 0.00 | 88 | 1008.1 |
| 20260904110129 | 19 | 69 | 4.8 | 14.5 | 0.00 | 0.05 | 0.00 | 88 | 1007.9 |
| 20260904104502 | 18 | 60 | 4.8 | 14.5 | 0.00 | 0.05 | 0.00 | 88 | 1008.1 |
| 20260904103008 | 18 | 70 | 8.0 | 19.3 | 0.00 | 0.05 | 0.00 | 89 | 1008.1 |
| 20260904101514 | 18 | 98 | 6.4 | 16.1 | 0.00 | 0.05 | 0.00 | 88 | 1008.2 |
| 20260904100001 | 18 | 99 | 6.4 | 16.1 | 0.00 | 0.05 | 0.00 | 88 | 1008.2 |
| 20260904094506 | 18 | 92 | 8.0 | 16.1 | 0.00 | 0.05 | 0.00 | 88 | 1008.3 |
| 20260904093020 | 18 | 54 | 8.0 | 22.5 | 0.00 | 0.05 | 0.00 | 88 | 1008.3 |
| 20260904091509 | 18 | 52 | 9.7 | 17.7 | 0.00 | 0.05 | 0.00 | 88 | 1008.4 |
| 20260904090007 | 18 | 27 | 8.0 | 17.7 | 0.00 | 0.05 | 0.00 | 89 | 1008.3 |
| 20260904084512 | 18 | 9 | 4.8 | 16.1 | 0.00 | 0.05 | 0.00 | 89 | 1008.4 |
| 20260904083129 | 18 | 5 | 6.4 | 22.5 | 0.00 | 0.05 | 0.00 | 89 | 1008.2 |
| 20260904081510 | 19 | 54 | 8.0 | 22.5 | 0.00 | 0.05 | 0.00 | 89 | 1008.3 |
| 20260904080008 | 20 | 20 | 11.3 | 38.6 | 0.00 | 0.05 | 0.00 | 89 | 1007.8 |
| 20260904074507 | 21 | 15 | 4.8 | 6.4 | 0.00 | 0.05 | 0.00 | 90 | 1007.2 |
| 20260904073034 | 21 | 35 | 1.6 | 6.4 | 0.00 | 0.05 | 0.00 | 90 | 1007.3 |
| 20260904071623 | 22 | 59 | 3.2 | 6.4 | 0.00 | 0.05 | 0.00 | 89 | 1007.1 |
| 20260904070124 | 22 | 57 | 1.6 | 6.4 | 0.00 | 0.05 | 0.00 | 89 | 1007.1 |
| 20260904064517 | 22 | 51 | 3.2 | 9.7 | 0.00 | 0.05 | 0.00 | 89 | 1007.1 |
| 20260904063003 | 22 | 50 | 4.8 | 9.7 | 0.00 | 0.05 | 0.00 | 89 | 1007.3 |
| 20260904061628 | 22 | 57 | 3.2 | 11.3 | 0.00 | 0.05 | 0.00 | 88 | 1007.1 |
| 20260904060001 | 22 | 90 | 3.2 | 9.7 | 0.00 | 0.05 | 0.00 | 88 | 1007.1 |
| 20260904054510 | 23 | 128 | 6.4 | 12.9 | 0.00 | 0.05 | 0.00 | 87 | 1007.4 |
| 20260904053007 | 23 | 80 | 6.4 | 14.5 | 0.00 | 0.05 | 0.00 | 87 | 1007.3 |
| 20260904051510 | 23 | 101 | 6.4 | 12.9 | 0.00 | 0.05 | 0.00 | 86 | 1007.3 |
| 20260904050009 | 23 | 70 | 3.2 | 11.3 | 0.00 | 0.05 | 0.00 | 86 | 1007.6 |
| 20260904044512 | 23 | 92 | 6.4 | 14.5 | 0.00 | 0.05 | 0.05 | 86 | 1007.4 |
| 20260904043130 | 23 | 13 | 4.8 | 14.5 | 0.00 | 0.05 | 0.05 | 86 | 1007.5 |
| 20260904041512 | 23 | 124 | 8.0 | 19.3 | 0.00 | 0.05 | 0.05 | 86 | 1007.2 |
| 20260904040010 | 23 | 137 | 12.9 | 22.5 | 0.00 | 0.05 | 0.05 | 86 | 1007.0 |
| 20260904034516 | 23 | 123 | 12.9 | 27.4 | 0.00 | 0.05 | 0.05 | 87 | 1006.9 |
| 20260904033021 | 23 | 124 | 9.7 | 17.7 | 0.00 | 0.05 | 0.05 | 86 | 1006.9 |
| 20260904031510 | 23 | 128 | 9.7 | 17.7 | 0.00 | 0.05 | 0.05 | 86 | 1007.0 |
| 20260904030016 | 23 | 93 | 9.7 | 17.7 | 0.00 | 0.05 | 0.05 | 86 | 1007.2 |
| 20260904024507 | 22 | 70 | 8.0 | 16.1 | 0.00 | 0.05 | 0.05 | 86 | 1007.3 |
| 20260904023149 | 22 | 92 | 8.0 | 17.7 | 0.00 | 0.05 | 0.05 | 86 | 1007.2 |
| 20260904021511 | 22 | 69 | 9.7 | 19.3 | 0.00 | 0.05 | 0.05 | 85 | 1007.0 |
| 20260904020136 | 23 | 98 | 9.7 | 16.1 | 0.00 | 0.05 | 0.05 | 84 | 1007.0 |
| 20260904014512 | 23 | 86 | 9.7 | 17.7 | 0.00 | 0.05 | 0.05 | 83 | 1006.8 |
| 20260904013014 | 23 | 103 | 11.3 | 19.3 | 0.00 | 0.05 | 0.05 | 82 | 1006.5 |
| 20260904011502 | 23 | 95 | 11.3 | 19.3 | 0.00 | 0.05 | 0.05 | 81 | 1006.4 |